Temperature
17 17 17 16 16 16 16 16 15 15 15 15 15 15 15 15 15 15 14 14 14 14 14 14 14 14 14 14 14 14 14 14 14 14 14 14 14 14 14 14 14 14 14
17 17 16 16 16 16 16 15 15 15 15 15 15 15 15 15 15 15 14 14 14 14 14 14 14 14 14 14 14 14 14 14 14 14 14 14 14 14 14 14 14 14 14
17 17 16 16 16 16 16 15 15 15 15 15 15 15 14 14 14 14 14 14 14 14 14 14 14 14 14 14 14 14 14 13 13 13 14 14 14 14 14 14 14 14 14
17 17 16 16 16 16 15 15 15 15 15 15 14 14 14 14 14 14 14 14 14 14 14 14 14 14 14 14 14 14 13 13 13 13 13 13 13 13 13 13 14 14 14
17 16 16 16 16 16 15 15 15 15 15 14 14 14 14 14 14 14 14 14 14 14 14 14 14 14 14 14 14 14 13 13 13 13 13 13 13 13 13 13 13 13 13
16 16 16 16 16 15 15 15 15 15 15 14 14 14 14 14 14 14 14 14 14 14 14 14 14 14 14 14 14 13 13 13 13 13 13 13 13 13 13 13 13 13 13
16 16 16 15 15 15 15 15 15 14 14 14 14 14 14 14 13 13 13 13 13 14 14 14 14 14 14 14 13 13 13 13 13 13 13 13 13 13 13 13 13 13 13
16 15 15 15 15 15 15 14 14 14 14 14 14 14 13 13 13 13 13 13 13 13 13 13 13 14 13 13 13 13 13 13 13 13 13 13 13 13 13 13 13 13 13
15 15 15 15 15 14 14 14 14 14 14 14 13 13 13 13 13 13 13 13 13 13 13 13 13 13 13 13 13 13 13 13 13 13 13 13 13 13 13 12 13 12 12
14 14 14 14 14 14 14 14 13 13 13 13 13 13 13 13 13 13 12 12 12 12 13 13 13 13 13 13 13 13 13 13 13 12 12 12 13 13 12 12 12 12 12
14 14 14 14 13 13 13 13 13 13 13 13 13 13 13 13 12 12 12 12 12 12 12 12 12 12 12 12 12 12 12 12 12 12 12 12 12 12 12 12 12 12 12
13 13 13 13 13 13 13 13 13 12 12 12 12 12 12 12 12 12 12 12 12 11 12 12 12 12 12 12 12 12 12 12 12 12 12 12 12 12 12 12 12 12 12
13 13 13 13 12 12 12 12 12 12 12 12 12 12 12 12 12 11 11 11 11 11 11 11 11 11 11 11 11 11 11 11 11 11 11 11 11 11 11 11 11 11 11
12 12 12 12 12 12 12 12 11 11 11 11 11 11 11 11 11 11 11 11 11 11 11 11 11 11 11 11 11 11 11 11 11 11 11 11 11 11 11 11 11 11 11
12 12 11 11 11 11 11 11 11 11 10 10 10 10 10 10 10 10 10 10 10 10 10 10 10 10 10 10 10 10 10 10 10 10 11 11 11 10 10 10 11 10 11
11 11 11 11 11 11 10 10 10 10 10 10 10 10 10 10 10 10 10 10 10 10 9 10 10 10 10 10 10 10 10 10 10 10 10 10 10 10 10 10 10 10 10
11 10 10 10 10 10 10 10 10 10 10 10 9 9 9 9 9 9 9 9 9 9 9 9 9 9 9 9 9 9 9 9 9 9 9 9 9 10 10 10 10 10 10
10 10 10 9 9 9 9 9 9 9 9 9 9 9 9 8 8 8 8 8 8 8 8 8 8 8 8 9 9 9 9 9 9 9 9 9 9 9 9 9 9 9 9
9 9 9 9 9 8 8 8 8 8 8 8 8 8 8 8 8 8 8 8 7 8 8 8 8 8 8 8 8 8 8 8 8 8 8 8 8 8 8 9 9 9 9
9 8 8 8 8 8 8 7 7 7 7 7 7 7 7 7 7 7 7 7 7 7 7 7 7 7 7 7 7 7 7 8 8 8 8 8 8 8 8 8 8 8 8
8 8 8 7 7 7 7 7 7 7 6 6 6 7 6 6 6 6 6 6 6 6 6 6 6 6 6 6 7 7 7 7 7 7 7 7 7 7 7 7 8 8 8
7 7 7 7 7 6 6 6 6 6 6 6 6 6 6 6 6 6 6 6 6 6 6 6 6 6 6 6 6 6 6 6 7 7 7 7 7 7 7 7 7 7 7
7 7 6 6 6 6 6 6 6 5 5 5 5 5 5 5 5 5 5 5 5 5 5 5 5 5 6 6 6 6 6 6 6 6 6 6 6 6 6 6 6 6 7
6 6 6 6 6 5 5 5 5 5 5 5 5 5 5 5 5 5 5 5 5 5 5 5 5 5 5 5 5 5 5 5 5 5 6 6 6 6 6 6 6 6 6
6 5 5 5 5 5 5 5 5 5 5 4 4 4 4 4 4 4 4 4 4 4 4 4 4 5 5 5 5 5 5 5 5 5 5 5 5 5 5 5 6 6 6
5 5 5 5 5 4 4 4 4 4 4 4 4 4 4 4 4 4 4 4 4 4 4 4 4 4 4 4 4 4 4 4 4 4 5 5 5 5 5 5 5 5 5
Wind_Speed
3 2 2 2 2 1 1 1 2 2 2 2 2 2 2 2 2 1 1 1 1 2 2 1 2 2 1 1 1 1 2 3 3 2 2 2 1 2 1 2 4 3 4
3 2 2 2 1 1 1 2 1 2 2 2 1 1 2 1 1 1 1 1 1 2 2 2 3 2 1 1 1 1 2 3 3 3 2 1 2 2 2 2 2 3 3
2 2 1 1 1 2 2 2 1 1 2 2 1 2 2 2 2 2 1 2 2 2 2 2 3 1 2 1 1 2 2 2 2 3 2 2 2 1 1 1 1 1 2
2 2 1 1 2 2 2 2 1 1 1 1 1 2 2 2 2 2 1 2 2 3 3 3 3 3 3 3 2 2 2 2 2 2 2 2 2 1 1 1 1 1 1
2 1 1 1 1 1 1 2 1 1 2 2 1 2 2 2 2 2 2 2 2 3 3 3 3 3 4 3 3 3 3 2 2 2 2 2 2 1 2 2 2 1 1
2 1 0 1 1 1 2 2 2 2 3 2 2 2 3 3 4 3 1 1 2 3 4 4 4 3 3 4 4 4 5 4 4 3 3 4 4 4 3 3 3 2 2
1 0 1 1 1 2 2 2 2 3 3 3 3 3 4 5 6 5 3 1 2 3 4 4 4 3 3 3 4 4 5 7 7 5 5 6 5 5 5 4 4 4 4
2 1 1 1 1 2 2 2 3 3 3 3 4 4 4 6 7 6 5 2 2 3 4 4 4 5 4 4 3 3 4 5 6 6 6 7 6 5 6 6 5 4 2
2 2 2 1 1 1 2 3 3 2 3 4 4 4 4 7 8 7 5 2 3 4 4 4 4 5 6 4 3 4 5 5 6 6 7 7 7 7 5 3 3 3 3
2 2 2 1 1 2 3 3 2 2 3 4 4 4 4 5 8 8 5 2 3 4 4 5 6 6 6 5 3 4 6 6 4 3 4 4 4 4 5 5 6 5 3
2 2 2 2 2 2 2 2 2 2 3 4 4 5 5 6 7 8 7 3 4 4 4 4 5 8 8 7 5 5 8 7 4 4 4 3 3 3 3 3 5 6 5
2 2 3 3 3 3 2 3 3 2 3 4 4 6 5 6 6 7 8 7 6 5 6 6 6 10 10 9 7 8 9 6 3 3 3 4 4 4 4 3 3 4 4
3 3 3 3 3 2 2 3 3 3 3 4 4 5 6 5 6 9 9 8 8 6 6 9 10 11 9 8 9 10 7 4 4 4 5 5 5 5 3 2 2 2 1
2 3 3 3 4 4 3 2 3 3 4 4 5 6 6 6 6 5 5 6 7 6 6 8 9 10 8 8 7 6 5 5 5 6 6 5 3 3 3 3 3 2 2
2 3 3 3 4 4 4 4 4 5 5 5 5 5 5 7 8 10 7 6 5 6 5 4 3 4 5 5 5 5 4 4 5 5 5 4 4 4 4 3 3 3 4
2 3 3 3 4 4 4 6 7 7 10 11 10 8 7 9 12 12 11 11 11 9 5 4 6 6 7 7 7 6 5 6 6 5 5 5 5 6 5 3 3 4 5
2 3 3 3 4 4 4 5 7 8 9 10 11 11 10 11 12 11 11 11 10 7 5 6 7 7 8 7 7 7 7 7 6 6 6 6 6 6 5 5 5 4 5
2 3 3 3 4 5 5 5 5 6 8 7 8 11 13 13 12 12 11 7 6 5 5 7 7 7 7 8 8 8 7 6 6 7 7 7 7 6 6 6 6 6 6
3 3 3 4 4 5 5 5 5 6 7 7 7 8 11 11 10 10 7 4 6 7 7 7 7 7 7 8 8 8 8 7 7 7 8 8 7 7 7 7 7 8 7
3 6 6 4 4 5 5 5 6 6 7 7 7 7 6 6 5 6 5 6 7 7 8 8 8 8 8 8 8 7 7 7 7 8 8 7 7 6 7 7 7 7 7
3 5 8 6 4 5 5 6 6 7 7 7 8 9 10 7 7 7 7 7 7 8 8 8 8 8 8 8 7 8 8 8 7 7 8 7 7 7 7 7 7 7 6
3 4 4 5 5 6 6 6 6 7 8 9 8 9 11 7 7 7 7 8 8 8 8 8 8 7 7 8 7 7 8 8 7 7 7 7 7 7 7 7 6 6 6
4 5 5 6 6 8 8 6 7 7 8 8 8 8 7 7 7 8 9 9 8 8 8 7 8 8 8 7 7 7 8 8 8 7 7 7 7 7 7 7 8 7 7
4 6 6 7 7 6 7 8 8 8 8 8 8 8 8 8 9 10 9 9 9 9 8 8 9 10 11 9 8 8 8 8 8 8 9 8 7 6 6 7 8 8 8
5 6 7 7 7 7 8 8 8 8 8 8 9 9 9 9 9 10 9 9 10 10 11 10 9 9 11 12 10 9 10 11 10 8 7 8 8 8 7 7 7 7 7
6 7 7 7 7 8 8 8 9 9 9 9 9 9 9 9 10 10 9 9 9 9 10 9 10 12 12 11 12 12 12 12 11 11 8 7 8 8 7 6 8 8 8
Wind_Direction
184 180 158 184 195 173 169 247 272 302 307 293 292 310 324 322 324 346 316 328 339 324 317 289 289 281 259 256 198 173 175 163 197 272 275 282 273 264 252 219 220 217 223
182 165 169 180 182 188 229 258 283 308 303 288 290 305 309 311 320 324 298 303 292 305 302 302 295 292 276 262 220 210 203 188 184 237 282 286 262 252 235 224 220 214 216
150 141 142 168 194 227 241 253 272 298 321 336 332 295 289 288 299 297 287 289 278 273 267 259 268 256 274 269 234 227 224 210 188 203 256 260 266 263 234 249 226 231 216
133 131 147 212 220 234 244 244 251 268 300 316 313 294 290 283 276 293 305 302 296 293 279 259 248 226 231 238 227 225 219 206 197 209 247 265 260 264 182 212 240 250 235
105 102 252 268 269 289 276 262 272 281 282 277 308 317 311 293 283 286 278 294 298 298 298 279 262 244 239 228 215 211 199 204 210 215 242 258 254 233 222 211 210 228 247
106 118 352 29 16 331 298 284 296 296 294 299 295 294 298 298 304 293 271 271 284 290 289 287 280 271 273 261 239 219 198 197 206 211 232 232 241 230 220 203 192 193 242
94 32 14 25 341 316 330 333 301 291 296 297 289 284 280 284 294 295 278 253 272 277 278 278 282 275 266 260 271 270 246 229 209 200 218 231 231 223 205 206 205 204 218
52 1 339 343 316 318 334 312 296 295 288 283 284 277 278 290 291 286 283 261 273 279 275 263 259 267 259 246 246 259 261 253 238 229 224 234 233 228 211 207 205 207 236
12 331 311 285 307 327 315 302 290 297 297 285 280 278 278 288 291 283 273 265 276 284 287 284 267 264 270 254 233 248 265 269 261 240 235 238 238 229 207 181 179 179 216
313 298 304 310 283 276 274 281 292 286 287 297 292 284 279 284 292 288 271 238 261 276 286 291 280 270 280 261 233 237 251 259 258 264 257 262 255 244 220 207 199 193 191
308 335 345 327 297 282 287 292 299 299 309 312 306 300 292 285 294 292 281 239 240 256 266 273 274 274 273 268 254 242 248 249 241 235 244 254 258 248 243 225 211 199 198
357 2 345 331 325 339 321 309 305 297 302 303 304 307 302 295 292 291 286 267 259 249 257 259 263 272 272 268 262 258 260 251 233 228 234 241 240 240 239 232 218 208 205
18 357 338 335 332 333 321 310 314 311 301 298 298 298 302 303 300 297 293 285 276 265 264 264 267 271 274 269 261 261 262 241 222 228 233 236 234 230 223 223 231 211 202
10 339 333 331 322 321 315 306 303 297 295 298 297 293 296 300 298 299 297 292 285 280 278 278 276 271 265 260 265 260 244 231 226 230 234 234 226 218 216 206 209 212 206
344 326 326 323 313 310 306 288 281 269 265 273 273 273 282 291 287 288 292 288 279 273 286 290 282 278 270 260 258 254 245 237 237 234 228 229 226 222 226 212 199 206 206
329 319 314 313 311 309 309 311 297 287 293 287 278 278 274 275 289 292 290 286 283 279 278 269 265 258 257 253 250 251 245 237 234 233 228 224 224 221 222 219 208 208 215
292 299 304 308 307 305 304 304 308 311 306 300 291 288 284 288 291 291 288 287 283 273 261 264 263 259 258 250 246 243 242 239 231 229 231 230 226 223 216 215 212 211 216
298 306 310 297 298 297 296 294 292 298 308 306 298 292 291 289 288 289 290 296 292 275 260 262 265 265 263 256 249 247 244 239 232 230 230 231 225 221 218 214 215 215 214
298 292 294 295 297 297 297 298 297 295 294 297 302 304 298 296 294 292 291 276 271 270 267 266 265 266 267 262 256 250 246 240 234 230 228 227 226 223 223 219 215 215 216
297 308 314 302 300 302 302 302 300 298 297 298 298 296 303 305 301 297 283 269 267 267 266 267 267 265 263 259 257 254 248 244 240 236 230 224 221 221 223 219 215 214 222
285 301 314 313 298 295 296 295 294 293 293 293 291 290 290 288 281 280 278 272 268 268 267 266 266 265 263 258 255 251 247 244 237 236 233 225 218 219 221 219 217 214 216
273 280 286 288 288 290 291 289 289 291 293 293 295 297 294 288 281 279 274 272 270 267 265 265 265 262 258 254 250 249 246 241 237 230 232 231 224 220 217 216 215 214 212
276 284 288 288 287 291 295 291 290 290 290 291 292 294 293 284 280 279 278 277 276 273 269 265 266 267 262 252 244 242 245 242 233 225 226 228 225 223 217 215 213 217 217
277 282 286 288 287 284 285 286 286 285 286 288 290 288 286 283 280 279 279 278 276 274 270 265 263 261 260 258 252 244 239 237 232 225 220 222 219 218 220 216 212 215 215
276 279 281 281 282 282 283 284 284 283 284 286 287 287 286 287 287 284 280 278 277 276 272 268 264 262 259 254 251 246 241 235 234 231 225 222 217 210 212 218 217 213 211
275 277 279 280 280 279 279 280 281 280 281 283 283 282 283 284 286 286 284 282 282 280 278 273 265 262 260 253 248 242 240 237 232 228 225 223 218 211 204 213 220 215 207
Height
1532 1532 1532 1532 1532 1531 1531 1530 1529 1528 1528 1527 1526 1525 1524 1523 1521 1520 1519 1518 1518 1517 1516 1515 1514 1514 1513 1513 1513 1513 1513 1513 1512 1512 1512 1512 1512 1512 1513 1513 1514 1514 1515
1531 1531 1531 1531 1531 1530 1530 1529 1528 1528 1527 1526 1525 1524 1523 1522 1521 1520 1519 1518 1517 1516 1515 1514 1513 1512 1512 1512 1511 1511 1511 1511 1511 1510 1510 1510 1510 1510 1511 1511 1511 1512 1513
1530 1530 1530 1530 1529 1529 1529 1528 1527 1526 1525 1525 1524 1523 1522 1521 1520 1519 1518 1517 1516 1515 1514 1513 1512 1511 1510 1510 1510 1509 1509 1509 1509 1508 1508 1508 1508 1508 1509 1509 1509 1510 1511
1529 1529 1528 1528 1528 1528 1527 1527 1526 1525 1524 1523 1522 1521 1521 1520 1519 1518 1517 1516 1515 1514 1513 1512 1511 1510 1509 1508 1508 1507 1507 1507 1507 1506 1506 1506 1506 1506 1506 1506 1507 1507 1508
1528 1527 1527 1527 1527 1527 1526 1525 1524 1524 1523 1522 1521 1520 1519 1518 1517 1516 1515 1514 1513 1512 1511 1510 1509 1508 1508 1507 1506 1505 1505 1504 1504 1504 1503 1503 1503 1503 1504 1504 1504 1505 1505
1527 1526 1526 1525 1525 1524 1524 1523 1523 1522 1521 1520 1519 1518 1517 1516 1515 1514 1513 1512 1511 1510 1509 1508 1507 1506 1505 1504 1504 1503 1503 1502 1501 1501 1500 1500 1500 1501 1501 1501 1501 1502 1502
1526 1525 1524 1524 1523 1522 1522 1521 1520 1519 1519 1518 1517 1515 1514 1514 1513 1512 1511 1510 1509 1507 1506 1505 1504 1503 1503 1502 1501 1500 1500 1499 1499 1499 1498 1497 1497 1498 1498 1498 1498 1498 1499
1524 1523 1523 1522 1521 1520 1519 1519 1518 1517 1516 1515 1514 1513 1512 1511 1510 1509 1508 1507 1506 1504 1503 1502 1501 1500 1499 1499 1498 1497 1496 1496 1495 1495 1494 1494 1494 1494 1494 1495 1495 1495 1496
1523 1522 1521 1520 1519 1518 1517 1516 1515 1514 1513 1512 1511 1510 1509 1508 1507 1506 1505 1503 1502 1501 1500 1499 1498 1497 1496 1495 1494 1493 1492 1492 1491 1491 1491 1490 1490 1490 1490 1491 1491 1491 1491
1521 1520 1519 1518 1517 1516 1515 1514 1513 1512 1511 1510 1508 1507 1506 1504 1503 1502 1501 1499 1498 1497 1496 1494 1494 1493 1492 1491 1490 1489 1488 1487 1487 1487 1486 1486 1486 1486 1486 1486 1486 1487 1487
1519 1518 1517 1516 1515 1514 1513 1512 1510 1509 1508 1506 1505 1504 1502 1501 1500 1498 1497 1495 1494 1492 1491 1490 1489 1488 1487 1486 1485 1484 1483 1483 1482 1482 1482 1481 1481 1481 1481 1481 1481 1482 1482
1517 1516 1515 1514 1513 1511 1510 1509 1507 1506 1504 1502 1501 1499 1498 1497 1496 1494 1493 1491 1490 1488 1486 1485 1484 1483 1482 1481 1480 1479 1479 1478 1477 1477 1476 1476 1476 1476 1476 1476 1476 1477 1477
1515 1514 1512 1511 1510 1509 1507 1505 1504 1502 1500 1498 1497 1495 1493 1492 1491 1490 1488 1486 1485 1483 1481 1480 1479 1477 1476 1475 1474 1474 1473 1472 1471 1471 1470 1470 1471 1471 1471 1471 1472 1472 1473
1513 1511 1510 1508 1507 1505 1504 1502 1501 1499 1497 1495 1493 1491 1489 1488 1486 1484 1482 1481 1479 1477 1475 1474 1472 1471 1470 1469 1468 1468 1467 1466 1466 1465 1465 1465 1466 1466 1466 1466 1467 1467 1468
1510 1508 1507 1505 1503 1502 1500 1499 1497 1496 1494 1492 1490 1487 1485 1482 1481 1480 1477 1475 1473 1471 1469 1467 1465 1464 1463 1462 1462 1461 1460 1460 1459 1459 1459 1459 1459 1460 1460 1461 1461 1462 1462
1507 1505 1503 1502 1500 1498 1496 1494 1492 1491 1489 1487 1485 1484 1481 1479 1476 1474 1472 1470 1467 1465 1463 1460 1459 1457 1456 1455 1455 1454 1454 1453 1453 1453 1453 1453 1453 1453 1454 1455 1455 1456 1456
1503 1502 1500 1498 1496 1494 1491 1489 1486 1485 1483 1482 1480 1478 1475 1473 1470 1468 1466 1463 1461 1459 1457 1454 1452 1451 1450 1449 1448 1447 1446 1446 1446 1446 1446 1446 1446 1447 1448 1448 1449 1450 1450
1500 1498 1496 1494 1492 1489 1487 1484 1482 1479 1476 1474 1473 1471 1469 1466 1464 1461 1459 1456 1454 1452 1450 1448 1446 1444 1443 1441 1440 1439 1439 1438 1438 1438 1438 1439 1439 1440 1440 1441 1442 1443 1444
1496 1494 1491 1489 1487 1484 1482 1479 1477 1474 1471 1468 1466 1464 1462 1459 1457 1455 1452 1450 1447 1445 1443 1441 1439 1437 1435 1434 1433 1432 1431 1430 1430 1430 1430 1431 1431 1432 1433 1434 1435 1436 1437
1492 1490 1487 1484 1482 1479 1477 1474 1471 1469 1466 1463 1460 1458 1455 1452 1449 1447 1445 1443 1440 1437 1435 1433 1431 1429 1427 1426 1424 1423 1423 1422 1421 1421 1421 1422 1423 1424 1425 1426 1427 1428 1430
1487 1485 1482 1480 1477 1474 1472 1469 1466 1463 1460 1457 1454 1452 1449 1446 1443 1440 1438 1436 1433 1430 1428 1425 1423 1421 1419 1418 1416 1415 1414 1414 1413 1413 1413 1414 1415 1416 1417 1419 1420 1421 1423
1482 1480 1477 1474 1472 1469 1466 1463 1460 1457 1454 1451 1447 1445 1442 1440 1436 1433 1430 1428 1425 1423 1420 1418 1415 1413 1411 1409 1408 1407 1406 1405 1405 1405 1405 1406 1407 1408 1409 1411 1412 1413 1415
1477 1474 1472 1469 1466 1463 1460 1457 1454 1451 1448 1444 1441 1438 1435 1432 1429 1426 1423 1420 1417 1414 1412 1410 1407 1404 1402 1400 1399 1399 1398 1397 1397 1397 1397 1398 1398 1399 1401 1402 1404 1406 1407
1472 1469 1466 1463 1460 1457 1454 1451 1448 1445 1442 1438 1435 1431 1428 1425 1422 1418 1415 1412 1409 1406 1403 1401 1398 1395 1393 1391 1390 1390 1389 1389 1389 1389 1389 1390 1390 1392 1393 1394 1396 1398 1400
1466 1463 1460 1457 1454 1451 1448 1445 1442 1438 1435 1431 1428 1424 1421 1417 1414 1410 1407 1404 1400 1397 1394 1391 1389 1386 1384 1382 1381 1381 1380 1380 1380 1380 1381 1382 1382 1383 1385 1387 1388 1390 1392
1460 1457 1454 1450 1447 1444 1441 1438 1434 1431 1428 1424 1421 1417 1414 1410 1406 1402 1399 1395 1392 1388 1385 1382 1379 1377 1375 1373 1372 1372 1372 1372 1372 1372 1373 1373 1374 1375 1377 1379 1381 1382 1385